Regional Weather Roundup
Issued by NWS

Home | Current Version | Previous Version | Graphics & Text | Print | Product List | Glossary On
Versions: 1 2 3 4 5 6 7 8 9 10 11 12 13 14 15 16 17 18 19 20 21 22 23 24 25 26 27 28 29 30 31 32 33 34 35 36 37 38 39 40 41 42 43 44 45 46 47 48 49 50
000
ASUS43 KLSX 181307
RWRMO

WEATHER SUMMARY FOR MISSOURI
NATIONAL WEATHER SERVICE SPRINGFIELD MO
800 AM CDT THU SEP 18 2014

NOTE: "FAIR" INDICATES FEW OR NO CLOUDS BELOW 12,000 FEET WITH NO
       SIGNIFICANT WEATHER AND/OR OBSTRUCTIONS TO VISIBILITY.
       CURRENT SKY AND/OR WEATHER CONDITIONS ARE NOT AVAILABLE FOR
       CHILLICOTHE AND FARMINGTON.

MOZ001>031-035>038-043-044-053-054-181400-
...NORTHERN AND WESTERN MISSOURI...

CITY           SKY/WX    TMP DP  RH WIND       PRES   REMARKS
KANSAS CTY INT FOG       59  59 100 E10       30.01R VSB 1/2
KANSAS C DTWN  CLOUDY    62  59  90 E10       30.00R FOG
LEE`S SUMMIT   FOG       60  59  96 E13       30.02S VSB 3/4
ST JOSEPH      CLOUDY    60  59  96 E6        30.02R FOG
CHILLICOTHE      N/A     60  57  89 VRB5      30.06R
KIRKSVILLE     FOG       54  54 100 E6        30.08R VSB 1/4

$$
MOZ066>068-077>081-088>096-101>105-181400-
...SOUTHWEST MISSOURI...

CITY           SKY/WX    TMP DP  RH WIND       PRES   REMARKS
SPRINGFIELD    CLOUDY    64  63  96 CALM      29.99S
JOPLIN         RAIN      64  62  93 S25       29.97F FOG

$$
MOZ032>034-039>042-045>050-055>058-069>072-181400-
...CENTRAL MISSOURI...

CITY           SKY/WX    TMP DP  RH WIND       PRES   REMARKS
COLUMBIA       CLOUDY    60  59  96 E7          N/A  FOG
JEFFERSON CITY CLOUDY    61  59  93 E3        30.04R FOG
ROLLA          FOG       58  58 100 E7        30.03R VSB 1/4
SEDALIA        FOG       61  59  93 E6        30.04R VSB 3/4
WHITEMAN AFB   FOG       61  60  98 NE6       30.02S VSB 1
OSAGE BEACH    CLOUDY    63  59  88 E3        30.03R

$$
MOZ051-052-059>065-181400-
...EAST CENTRAL MISSOURI...

CITY           SKY/WX    TMP DP  RH WIND       PRES   REMARKS
ST LOUIS INTL  CLOUDY    63  56  78 E3        30.05R
SPIRIT OF STL  CLOUDY    62  57  83 VRB3      30.04R
ST CHARLES     CLOUDY    61  56  83 NE3       30.05R

$$
MOZ072>076-082>087-097>100-106>115-181400-
...SOUTH CENTRAL AND SOUTHEAST MISSOURI...

CITY           SKY/WX    TMP DP  RH WIND       PRES   REMARKS
CAPE GIRARDEAU CLOUDY    62  59  90 CALM      30.01R FOG
FARMINGTON     CLOUDY    61  59  94 NE5       30.05R
POPLAR BLUFF   CLOUDY    61  57  87 N5        29.99R FOG
WEST PLAINS    FOG       60  59  96 N5        30.03R VSB 1/4

$$



USA.gov is the U.S. government's official web portal to all federal, state and local government web resources and services.